This is the latest recevied weather packets stored in our database for station/object EA5GTE-12. If no packets are shown the sender has not sent any weather packets the latest 10 day(s).
| Time | Temp. | Humidity | Pressure | Rain* | Wind** | Luminosity | Snow |
|---|---|---|---|---|---|---|---|
| 1777431121 | 12.22° C | 100% | 933.8 hPa | - | - | - | - |
| 1777430221 | 12.78° C | 100% | 933.9 hPa | - | - | - | - |
| 1777429321 | 12.78° C | 100% | 933.8 hPa | - | - | - | - |
| 1777428421 | 12.78° C | 100% | 933.8 hPa | - | - | - | - |
| 1777427520 | 12.22° C | 100% | 933.7 hPa | - | - | - | - |
| 1777426621 | 12.22° C | 100% | 933.6 hPa | - | - | - | - |
| 1777425720 | 12.22° C | 100% | 933.7 hPa | - | - | - | - |
| 1777423921 | 13.33° C | 100% | 933.9 hPa | - | - | - | - |
| 1777423021 | 13.33° C | 100% | 934 hPa | - | - | - | - |
| 1777422121 | 13.33° C | 100% | 934.2 hPa | - | - | - | - |
| 1777421221 | 13.33° C | 100% | 934.1 hPa | - | - | - | - |
| 1777420321 | 12.78° C | 100% | 934.2 hPa | - | - | - | - |
| 1777419421 | 12.78° C | 100% | 934.2 hPa | - | - | - | - |
| 1777418521 | 13.33° C | 100% | 934.4 hPa | - | - | - | - |
| 1777417621 | 13.33° C | 100% | 934.4 hPa | - | - | - | - |
| 1777416721 | 13.33° C | 100% | 934.4 hPa | - | - | - | - |
| 1777415821 | 13.33° C | 100% | 934.4 hPa | - | - | - | - |
| 1777414921 | 13.33° C | 100% | 934.5 hPa | - | - | - | - |
| 1777414020 | 13.89° C | 100% | 934.6 hPa | - | - | - | - |
| 1777413120 | 14.44° C | 100% | 934.7 hPa | - | - | - | - |
| 1777412220 | 15° C | 100% | 934.6 hPa | - | - | - | - |
| 1777411320 | 15° C | 100% | 934.8 hPa | - | - | - | - |
| 1777410419 | 15.56° C | 100% | 934.7 hPa | - | - | - | - |
| 1777409519 | 15.56° C | 100% | 934.6 hPa | - | - | - | - |
| 1777408619 | 15.56° C | 95% | 934.4 hPa | - | - | - | - |
* Rain since midnight (hover to see other rain measurements)
** Current wind speed in m/s (hover to see current wind gust speed)